TimeCST,TemperatureF,Dew PointF,Humidity,Sea Level PressureIn,VisibilityMPH,Wind Direction,Wind SpeedMPH,Gust SpeedMPH,PrecipitationIn,Events,Conditions,WindDirDegrees,DateUTC
12:53 AM,3.0,-5.1,69,30.34,10.0,West,8.1,-,N/A,,Clear,260,2012-12-10 06:53:00
1:53 AM,-0.0,-7.1,72,30.30,10.0,West,4.6,-,N/A,,Clear,280,2012-12-10 07:53:00
2:53 AM,1.0,-6.0,72,30.30,10.0,WSW,11.5,-,N/A,,Clear,250,2012-12-10 08:53:00
3:53 AM,-2.0,-8.0,76,30.27,10.0,West,5.8,-,N/A,,Clear,260,2012-12-10 09:53:00
4:53 AM,-0.9,-7.1,75,30.24,10.0,WSW,6.9,-,N/A,,Clear,250,2012-12-10 10:53:00
5:53 AM,-0.9,-8.0,72,30.20,10.0,West,9.2,-,N/A,,Clear,260,2012-12-10 11:53:00
6:53 AM,-2.0,-8.0,76,30.19,10.0,WSW,6.9,-,N/A,,Clear,240,2012-12-10 12:53:00
7:53 AM,-0.9,-7.1,75,30.17,10.0,WSW,6.9,-,N/A,,Clear,250,2012-12-10 13:53:00
8:53 AM,3.9,-2.9,73,30.15,10.0,West,6.9,-,N/A,,Clear,260,2012-12-10 14:53:00
9:53 AM,15.1,3.9,61,30.12,10.0,West,9.2,-,N/A,,Clear,260,2012-12-10 15:53:00
10:53 AM,26.1,6.1,43,30.08,10.0,WSW,16.1,-,N/A,,Partly Cloudy,250,2012-12-10 16:53:00
11:53 AM,35.1,6.1,30,30.03,10.0,West,10.4,-,N/A,,Mostly Cloudy,270,2012-12-10 17:53:00
12:53 PM,39.0,6.1,26,29.99,10.0,West,10.4,-,N/A,,Scattered Clouds,270,2012-12-10 18:53:00
1:53 PM,41.0,5.0,23,29.96,10.0,WNW,17.3,24.2,N/A,,Clear,300,2012-12-10 19:53:00
2:53 PM,42.1,6.1,23,29.94,10.0,West,9.2,-,N/A,,Clear,270,2012-12-10 20:53:00
3:53 PM,42.1,7.0,24,29.94,10.0,WNW,10.4,-,N/A,,Clear,290,2012-12-10 21:53:00
4:53 PM,37.9,8.1,29,29.95,7.0,NW,9.2,-,N/A,,Clear,320,2012-12-10 22:53:00
5:53 PM,30.0,7.0,38,29.99,10.0,WNW,8.1,-,N/A,,Partly Cloudy,300,2012-12-10 23:53:00
6:53 PM,28.9,8.1,41,30.00,10.0,West,6.9,-,N/A,,Overcast,270,2012-12-11 00:53:00
7:53 PM,28.0,8.1,43,30.03,10.0,WNW,10.4,-,N/A,,Clear,300,2012-12-11 01:53:00
8:53 PM,24.1,9.0,53,30.05,10.0,NNW,9.2,-,N/A,,Clear,330,2012-12-11 02:53:00
9:53 PM,23.0,9.0,55,30.05,10.0,WSW,4.6,-,N/A,,Mostly Cloudy,250,2012-12-11 03:53:00
10:53 PM,21.9,10.0,60,30.04,10.0,West,8.1,-,N/A,,Clear,270,2012-12-11 04:53:00
11:53 PM,19.0,8.1,62,30.05,10.0,WSW,5.8,-,N/A,,Clear,240,2012-12-11 05:53:00